NOAA 16 DEB

Satellite information

Favourite Embed

Satellite Type and Status

DEBRISIN ORBIT

Key statistics

Satellite NOAA 16 DEB at a glance.

Uptime

9159

Days in orbit

Revolutions

≈ 14.5

Per day

Orbit

SSO

Sun Synchronous Orbit

Inclination

99.0

Latest

Satellite identification and parameters

Extended collection of information and parameters for NOAA 16 DEB.

Object identification

Identified? True

Debris? True

Object name: NOAA 16 DEB

International designator: 2000-055GU

Object number (NORAD): 41292

Object ID (CCSDS): 41292

Country: UNITED STATES OF AMERICA (US)

Current information (Y/N): Y

RCS size: SMALL

Orbital parameters

Period: 99.04 minutes

Inclination: 98.9752 deg

SMA: 7090.91 km

Apoapsis: 738.302 km

Periapsis: 687.247 km

RAAN: 144.4252 deg

Eccentricy: 0.00360008

Argument of periapsis: 38.0177 deg

Mean anomaly: 322.3548 deg

Mean motion: 14.53951242 rev/day

Mean motion (dot): 0.00015078 rev/day2

B* drag term: 0.0035549641 1/REarth

Two-line elements (TLE)

Creation date: Oct. 18, 2025, 2:17 a.m.

Reference frame: TEME

Reference center: EARTH

Epoch: Oct. 17, 2025, 8:49 p.m. UTC

TLE line 0: 0 NOAA 16 DEB

TLE line 1: 1 41292U 00055GU 25290.86756339 .00015078 00000-0 35550-2 0 9994

TLE line 2: 2 41292 98.9752 144.4252 0036001 38.0177 322.3548 14.53951242512559

Live tracking on map

Real-time ground track for satellite NOAA 16 DEB.

In-orbit conjunctions

A list of the most updated potential collisions computed for object NOAA 16 DEB.

Target Orbit TCA Probability of collision Miss distance Type
COSMOS 2251 DEB LEO 2025-02-21 09:55:50 0.0001620862 157.0 (m) DEBRIS
DELTA 1 DEB SSO 2024-12-19 20:00:56 0.0003203698 103.0 (m) DEBRIS
SL-8 R/B LEO 2024-11-22 20:09:26 0.0001516261 323.0 (m) ROCKET BODY
DMSP 5D-2 F13 DEB SSO 2024-09-25 19:47:01 0.000306396 463.0 (m) DEBRIS

Associated space launch

The NOAA K, L and M POES satellites begin the fifth generation of improved environmental monitoring in support of NOAA missions. The instrument payload has significant improvements and additions/deletions. The instrument changes have effected the spacecraft subsystems and data formats.

NOAA 16 DEB was lifted into orbit during the mission ‘Titan II SLV | NOAA 16’, on board a Titan II SLV space rocket.

The launch took place on Sept. 21, 2000, 10:22 a.m. from Space Launch Complex 4W.

For more information about the launch, click the button.

Launch to space Titan II SLV | NOAA 16
Titan II SLV | NOAA 16

Agency: N/A

Status: Launch Successful

Launch date: Sept. 21, 2000, 10:22 a.m. UTC

Rocket: Titan II SLV

Launch pad: Space Launch Complex 4W

Location: Vandenberg SFB, CA, USA

...

Latest news about this satellite

There are no fresh news available about this satellite. Check back as we update our databases every day.


Newsletter sign-up

Weekly statistics, charts and insights to help you stay on top of the space industry.